This demonstration page uses our WeatherBlox Daily Observations layout. Learn more.

Left ArrowRight Arrow

Hourly Observations for May 31, 2021

Temp ( °F °C ) Dew Point ( °F °C ) Humidity (%) Winds ( mph kmh ) Pressure ( in mb ) Visibility ( mi km ) Precip ( " mm )
12:08 am 00:08 Mostly Cloudy 72 22.2 61 16.1 68 68 E 12 19 29.86 1011 10 16 0.00 0.00
12:53 am 00:53 Cloudy 73 22.8 63 17.2 71 71 ESE 16 26 29.88 1012 10 16 0.00 0.00
1:53 am 01:53 Cloudy 73 22.8 64 17.8 74 74 ESE 13 20 29.86 1011 10 16 0.00 0.00
2:13 am 02:13 Cloudy 73 22.8 64 17.8 74 74 E 9 15 29.86 1011 10 16 0.00 0.00
2:53 am 02:53 Cloudy 73 22.8 65 18.3 76 76 SE 16 26 29.85 1011 10 16 0.00 0.00
3:53 am 03:53 Cloudy 73 22.8 65 18.3 76 76 ESE 13 20 29.86 1011 10 16 0.00 0.00
4:53 am 04:53 Cloudy 72 22.2 64 17.8 76 76 SE 18 30 29.86 1011 10 16 0.00 0.00
5:53 am 05:53 Mostly Cloudy 71 21.7 64 17.8 79 79 SE 14 22 29.87 1012 10 16 0.00 0.00
6:53 am 06:53 Sunny 71 21.7 65 18.3 81 81 SE 12 19 29.90 1012 10 16 0.00 0.00
7:19 am 07:19 Mostly Cloudy with Nearby Thunderstorms 71 21.7 65 18.3 81 81 ESE 12 19 29.89 1012 10 16 0.00 0.00
7:31 am 07:31 Cloudy with Thunderstorms 70 21.1 66 18.9 87 87 undefined N/A 29.92 1013 6 10 0.02 0.51
7:40 am 07:40 Partly Cloudy with Strong Thunderstorms 66 18.9 64 17.8 93 93 SSW 23 37 29.96 1015 0 0 0.67 17.02
7:53 am 07:53 Partly Cloudy with Thunderstorms 66 18.9 63 17.2 90 90 SSE 15 24 29.92 1013 1 2 1.07 27.18
7:56 am 07:56 Partly Cloudy with Thunderstorms 67 19.4 64 17.8 91 91 SSE 10 17 29.94 1014 3 5 0.00 0.00
8:12 am 08:12 Cloudy with Nearby Thunderstorms 67 19.4 65 18.3 93 93 ESE 7 11 29.94 1014 10 16 0.00 0.00
8:21 am 08:21 Cloudy 67 19.4 65 18.3 93 93 E 10 17 29.93 1013 10 16 0.00 0.00
8:49 am 08:49 Cloudy with Nearby Thunderstorms 70 21 66 19 88 88 ESE 9 15 29.92 1013 9 14 0.00 0.00
8:53 am 08:53 Cloudy with Nearby Thunderstorms 69 20.6 66 18.9 90 90 SE 14 22 29.92 1013 10 16 0.00 0.00
9:07 am 09:07 Cloudy with Thunderstorms 69 20.6 67 19.4 93 93 ESE 16 26 29.91 1013 3 4 0.14 3.56
9:16 am 09:16 Cloudy with Thunderstorms 69 20.6 67 19.4 93 93 SE 15 24 29.91 1013 7 11 0.15 3.81
9:29 am 09:29 Mostly Cloudy with Light Rain 69 20.6 66 18.9 90 90 SE 15 24 29.90 1013 5 8 0.15 3.81
9:36 am 09:36 Mostly Cloudy with Nearby Thunderstorms 69 20.6 67 19.4 93 93 SE 13 20 29.90 1013 6 10 0.15 3.81
9:48 am 09:48 Mostly Cloudy 70 21 66 19 88 88 SE 20 31 29.91 1013 8 13 0.15 3.81
9:53 am 09:53 Mostly Cloudy 69 20.6 66 18.9 90 90 SE 14 22 29.91 1013 9 14 0.15 3.81
10:38 am 10:38 Mostly Cloudy 70 21.1 67 19.4 90 90 SE 14 22 29.92 1013 10 16 0.00 0.00
10:53 am 10:53 Cloudy 70 21.1 67 19.4 90 90 ESE 10 17 29.93 1014 10 16 0.00 0.00
10:58 am 10:58 Cloudy 71 21.7 68 20 90 90 E 9 15 29.92 1013 10 16 0.00 0.00
11:32 am 11:32 Cloudy 70 21.1 64 17.8 82 82 NE 16 26 29.94 1014 10 16 0.00 0.00
11:53 am 11:53 Mostly Cloudy 71 21.7 65 18.3 81 81 ENE 14 22 29.94 1014 10 16 0.00 0.00
12:53 pm 12:53 Cloudy 71 21.7 66 18.9 84 84 ENE 13 20 29.95 1014 10 16 0.00 0.00
1:25 pm 13:25 Mostly Cloudy 73 22.8 67 19.4 81 81 ENE 13 20 29.92 1013 10 16 0.00 0.00
1:53 pm 13:53 Mostly Cloudy 74 23.3 67 19.4 79 79 ENE 14 22 29.93 1013 10 16 0.00 0.00
2:53 pm 14:53 Mostly Cloudy 75 23.9 65 18.3 71 71 ENE 18 30 29.91 1013 10 16 0.00 0.00
3:35 pm 15:35 Mostly Cloudy 72 22.2 63 17.2 73 73 ENE 18 30 29.92 1013 10 16 0.00 0.00
3:53 pm 15:53 Mostly Cloudy 71 21.7 62 16.7 73 73 E 17 28 29.93 1014 10 16 0.00 0.00
4:01 pm 16:01 Cloudy with Nearby Thunderstorms 71 21.7 62 16.7 73 73 ENE 20 31 29.93 1014 10 16 0.00 0.00
4:15 pm 16:15 Cloudy with Strong Thunderstorms 67 19.4 62 16.7 84 84 ENE 21 33 29.95 1014 3 4 0.10 2.54
4:35 pm 16:35 Cloudy with Strong Thunderstorms 65 18.3 62 16.7 90 90 E 17 28 29.98 1015 2 3 0.32 8.13
4:42 pm 16:42 Cloudy with Thunderstorms 65 18.3 62 16.7 90 90 E 16 26 29.97 1015 3 5 0.34 8.64
4:53 pm 16:53 Cloudy with Nearby Thunderstorms 65 18.3 62 16.7 90 90 ESE 22 35 29.93 1014 4 6 0.36 9.14
5:10 pm 17:10 Partly Cloudy 67 19.4 62 16.7 84 84 E 20 31 29.93 1013 10 16 0.00 0.00
5:53 pm 17:53 Mostly Sunny 68 20 61 16.1 78 78 ESE 16 26 29.94 1014 10 16 0.00 0.00
6:35 pm 18:35 Mostly Cloudy 67 19.4 60 15.6 79 79 ESE 15 24 29.98 1015 10 16 0.00 0.00
6:53 pm 18:53 Mostly Cloudy 68 20 60 15.6 76 76 E 14 22 29.97 1015 10 16 0.00 0.00
7:49 pm 19:49 Partly Cloudy 66 19 61 16 83 83 E 8 13 30.03 1017 10 16 0.00 0.00
7:53 pm 19:53 Mostly Cloudy 67 19.4 60 15.6 79 79 E 8 13 30.03 1017 10 16 0.00 0.00
8:53 pm 20:53 Sunny 66 18.9 59 15 78 78 NE 8 13 30.04 1017 10 16 0.00 0.00
9:53 pm 21:53 Clear 65 18.3 57 13.9 76 76 NE 8 13 30.06 1018 10 16 0.00 0.00
10:53 pm 22:53 Clear 64 17.8 57 13.9 78 78 ESE 10 17 30.04 1017 10 16 0.00 0.00
11:53 pm 23:53 Clear 63 17.2 57 13.9 81 81 SE 8 13 30.05 1018 10 16 0.00 0.00

Powered by AerisWeather